Location: Dana
(41.8364°N, 106.7042°W)
Time: 12:27:06
(UTC+00:00)

S-56A Canister/Altair - All Passes

Search period start: 13 May 2026 00:00
Search period end: 23 May 2026 00:00
Orbit: 633 x 2484 km, 38.9° (Epoch: 13 May)

Date Brightness Start Highest point End Pass type
(mag) Time Alt. Az. Time Alt. Az. Time Alt. Az.
13 May - 03:29:58 10° SSW 03:33:35 24° SSE 03:37:16 10° E visible
13 May - 05:32:02 10° WSW 05:36:26 59° S 05:41:53 10° E visible
13 May - 07:34:52 10° W 07:39:49 57° S 07:46:48 10° ESE visible
13 May - 09:38:09 10° W 09:43:29 29° SSW 09:50:50 10° SSE visible
14 May - 02:55:30 10° SSW 02:58:53 20° SSE 03:02:11 10° ESE visible
14 May - 04:57:23 10° WSW 05:01:43 55° SSE 05:06:43 10° E visible
14 May - 07:00:16 10° W 07:04:58 59° S 07:11:23 10° ESE visible
14 May - 09:03:27 10° W 09:08:31 31° SSW 09:15:31 10° SE visible
14 May - 11:10:51 10° SW 11:12:20 11° SW 11:13:54 10° SSW visible
15 May - 02:21:04 10° SSW 02:24:10 17° SSE 02:27:06 10° ESE daylight
15 May - 04:22:42 10° WSW 04:26:59 49° SSE 04:31:39 10° E visible
15 May - 06:25:39 10° W 06:30:10 60° S 06:36:04 10° ESE visible
15 May - 08:28:46 10° W 08:33:36 33° SSW 08:40:12 10° SE visible
15 May - 10:34:51 10° SW 10:37:18 12° SSW 10:40:02 10° SSW visible
16 May - 01:46:40 10° S 01:49:25 15° SSE 01:52:00 10° ESE daylight
16 May - 03:47:58 10° WSW 03:52:17 45° SSE 03:56:41 10° E visible
16 May - 05:50:59 10° W 05:55:24 61° S 06:00:50 10° ESE visible
16 May - 07:54:06 10° W 07:58:44 35° SSW 08:04:56 10° SE night (unlit)
16 May - 09:59:25 10° WSW 10:02:18 13° SSW 10:05:38 10° S visible
17 May - 01:12:21 10° S 01:14:40 13° SSE 01:16:48 10° ESE daylight
17 May - 03:13:12 10° SW 03:17:35 40° SSE 03:21:47 10° E visible
17 May - 05:16:17 10° W 05:20:39 62° S 05:25:42 10° ESE visible
17 May - 07:19:26 10° W 07:23:54 38° SSW 07:29:43 10° SE night (unlit)
17 May - 09:24:13 10° WSW 09:27:21 14° SSW 09:31:01 10° S visible
18 May - 00:38:14 10° SSE 00:39:51 11° SSE 00:41:23 10° SE daylight
18 May - 02:38:22 10° SW 02:42:52 36° SSE 02:46:56 10° E daylight
18 May - 04:41:32 10° W 04:45:55 61° S 04:50:40 10° E visible
18 May - 06:44:46 10° W 06:49:06 40° SSW 06:54:33 10° SE visible
18 May - 08:49:09 10° WSW 08:52:26 16° SSW 08:56:18 10° S night (unlit)
19 May - 02:03:28 10° SW 02:08:09 32° SSE 02:12:09 10° E daylight
19 May - 04:06:43 10° WSW 04:11:12 60° S 04:15:44 10° E visible
19 May - 06:10:05 10° W 06:14:20 43° SSW 06:19:28 10° SE visible
19 May - 08:14:12 10° WSW 08:17:33 17° SSW 08:21:32 10° S night (unlit)
20 May - 01:28:32 10° SW 01:33:23 30° SSE 01:37:24 10° E daylight
20 May - 03:31:49 10° WSW 03:36:29 59° S 03:40:53 10° E visible
20 May - 05:35:21 10° W 05:39:36 47° SSW 05:44:27 10° ESE visible
20 May - 07:39:19 10° WSW 07:42:43 19° SSW 07:46:45 10° SSE night (unlit)
21 May - 00:53:32 10° SSW 00:58:36 27° SSE 01:02:40 10° E daylight
21 May - 02:56:51 10° WSW 03:01:46 56° S 03:06:06 10° E visible
21 May - 05:00:34 10° W 05:04:53 50° SSW 05:09:30 10° ESE visible
21 May - 07:04:27 10° WSW 07:07:55 21° SSW 07:11:59 10° SSE night (unlit)
22 May - 00:18:30 10° SSW 00:23:47 25° SSE 00:27:55 10° E daylight
22 May - 02:21:47 10° WSW 02:27:01 54° S 02:31:22 10° E daylight
22 May - 04:25:43 10° W 04:30:10 54° S 04:34:38 10° ESE visible
22 May - 06:29:35 10° WSW 06:33:09 23° SSW 06:37:12 10° SSE visible
22 May - 23:43:26 10° SSW 23:48:55 23° SSE 23:53:10 10° ESE daylight
